[[{"header":{"parameterUnit":"m.s-1","parameterCategory":1,"la1":30.2991,"la2":30.254,"lo1":-89.0895,"lo2":-89.0444,"dy":0.0017,"dx":0.0017,"nx":28,"ny":28,"refTime":"2024-09-02T03:00:00:Z","depth":0,"parameterNumber":2,"parameterNumberName":"U-component_of_WINDS"},"data":[0,0,0,0,0,0,0,0,0,0,0,0,0,0,0,0,0,0,0,0,0,0,0,0,0,0,0,0,0,0,0,0,0,0,0,0,0,0,0,0,0,0,0,0,0,0,0,0,0,0,0,0,0,0,0,0,0,0,-0.395,-0.3949,0,-0.3905,-0.3905,-0.3904,-0.3892,-0.3892,-0.3892,-0.3892,-0.3847,-0.3846,-0.3845,0,0,0,0,0,0,0,0,0,0,0,0,0,-0.4026,-0.4024,-0.395,-0.3949,-0.3949,-0.3906,-0.3905,-0.3904,-0.3892,-0.3892,-0.3892,-0.3892,-0.3848,-0.3846,-0.3844,0,0,0,0,0,0,0,0,0,0,0,0,0,-0.3988,-0.4024,-0.395,-0.3937,-0.3936,-0.3906,-0.3905,-0.3904,-0.3891,-0.3892,-0.3892,-0.3893,-0.3848,-0.3846,-0.3844,-0.3824,0,0,-0.3838,-0.3837,0,0,0,0,0,0,0,0,-0.399,-0.3986,-0.394,-0.3938,-0.3936,-0.3904,-0.3915,-0.3877,-0.3891,-0.3908,-0.3892,-0.3893,-0.3866,-0.3863,-0.3853,-0.3822,-0.382,-0.3837,-0.3836,-0.3835,-0.3835,0,0,0,0,0,0,0,-0.3993,-0.3987,-0.3932,-0.3939,-0.3937,-0.3934,-0.3929,-0.3908,-0.3886,-0.3907,-0.3906,-0.3901,-0.3865,-0.3855,-0.3852,-0.3819,-0.3838,-0.3836,-0.3834,-0.3834,-0.377,-0.377,0,0,0,0,0,0,-0.3998,-0.399,-0.3934,-0.3931,-0.3965,-0.3933,-0.3927,-0.3914,-0.3886,-0.3882,-0.39,-0.39,-0.3859,-0.3855,-0.3851,-0.3825,-0.3835,-0.3833,-0.3832,-0.377,-0.377,-0.3769,0,0,0,0,0,0,-0.3999,-0.3993,-0.3936,-0.396,-0.3953,-0.3931,-0.3917,-0.3913,-0.3903,-0.3881,-0.3877,-0.3894,-0.3859,-0.3854,-0.3831,-0.3823,-0.3832,-0.383,-0.3771,-0.377,-0.377,-0.3774,0,0,0,0,0,0,-0.4002,-0.3993,-0.3985,-0.396,-0.3951,-0.3916,-0.3916,-0.3912,-0.39,-0.3899,-0.3874,-0.3871,-0.3859,-0.3834,-0.3829,-0.3821,-0.3829,-0.3771,-0.3771,-0.377,-0.3775,-0.3774,-0.3773,0,0,0,0,0,-0.4004,-0.3988,-0.3985,-0.3978,-0.394,-0.3915,-0.3911,-0.3897,-0.3899,-0.3891,-0.3877,-0.3871,-0.3826,-0.3832,-0.3826,-0.3817,-0.3772,-0.3771,-0.377,-0.3775,-0.3774,-0.3773,0,0,0,0,0,0,-0.4012,-0.3984,-0.398,-0.3955,-0.3938,-0.3913,-0.3902,-0.3897,-0.3878,-0.3878,-0.3863,-0.3858,-0.3836,-0.3824,-0.3832,-0.3797,-0.3799,-0.3796,-0.3805,-0.3803,-0.3803,-0.3806,-0.3827,0,0,0,0,0,-0.4011,-0.3993,-0.397,-0.395,-0.3942,-0.3924,-0.3912,-0.3904,-0.3885,-0.3878,-0.3862,-0.3845,-0.3826,-0.3814,-0.3796,-0.3774,-0.3768,-0.3765,-0.3764,-0.3764,-0.3761,-0.3749,-0.3747,-0.3766,-0.3766,-0.3766,0,0,-0.4009,-0.3991,-0.3981,-0.3951,-0.3937,-0.3919,-0.3917,-0.3898,-0.3885,-0.3875,-0.3852,-0.3841,-0.382,-0.3797,-0.3787,-0.3787,-0.3755,-0.3762,-0.3762,-0.376,-0.3748,-0.3746,-0.3745,-0.3766,-0.3766,-0.3766,0,0,-0.3995,-0.398,-0.3962,-0.3948,-0.3926,-0.3914,-0.391,-0.3887,-0.3878,-0.3856,-0.3848,-0.3833,-0.3801,-0.3787,-0.3776,-0.3759,-0.3753,-0.3754,-0.3749,-0.3738,-0.3736,-0.3735,-0.3729,-0.3727,-0.3752,-0.3752,-0.3752,0,-0.3994,-0.3966,-0.3953,-0.3935,-0.3922,-0.3913,-0.3895,-0.3882,-0.3856,-0.3848,-0.3849,-0.381,-0.3796,-0.377,-0.3766,-0.3757,-0.3752,-0.3756,-0.3737,-0.3736,-0.3734,-0.3728,-0.3726,-0.3752,-0.3752,-0.3752,-0.3752,0,-0.3967,-0.3948,-0.3936,-0.3911,-0.3898,-0.388,-0.3864,-0.3853,-0.3846,-0.3835,-0.3812,-0.3795,-0.3773,-0.3767,-0.376,-0.3741,-0.3742,-0.374,-0.3742,-0.3733,-0.3727,-0.3724,-0.3752,-0.3752,-0.3752,-0.3752,0,0,-0.3955,-0.3924,-0.392,-0.3908,-0.3885,-0.387,-0.3853,-0.3832,-0.3822,-0.3805,-0.379,-0.3764,-0.3763,-0.3751,-0.3743,-0.3732,-0.372,-0.3732,-0.3732,-0.373,-0.3698,-0.3698,-0.3696,-0.3717,-0.3717,-0.3716,-0.37,0,-0.3937,-0.3904,-0.3893,-0.3866,-0.3849,-0.3841,-0.3825,-0.381,-0.3799,-0.3783,-0.3772,-0.3754,-0.3754,-0.3747,-0.3737,-0.3724,-0.3713,-0.3725,-0.3703,-0.3702,-0.3707,-0.3693,-0.3693,-0.3678,-0.3697,-0.3697,-0.3697,0,-0.3912,-0.3894,-0.3866,-0.3845,-0.3837,-0.3824,-0.3804,-0.3789,-0.3772,-0.3765,-0.3752,-0.3745,-0.3727,-0.3731,-0.3706,-0.3715,-0.3706,-0.3698,-0.3697,-0.3694,-0.3698,-0.3688,-0.3673,-0.367,-0.3693,-0.3693,-0.3693,0,-0.3905,-0.3875,-0.3854,-0.3845,-0.382,-0.3811,-0.3801,-0.3783,-0.3772,-0.3756,-0.3748,-0.373,-0.372,-0.3706,-0.3695,-0.3699,-0.3672,-0.3675,-0.3666,-0.3666,-0.3659,-0.3659,-0.3641,-0.3655,-0.3655,-0.3655,-0.3655,0,-0.3886,-0.3869,-0.3851,-0.3838,-0.3819,-0.3806,-0.3788,-0.3777,-0.3763,-0.3748,-0.3741,-0.3727,-0.3713,-0.3698,-0.369,-0.3671,-0.3666,-0.3661,-0.3658,-0.3661,-0.3661,-0.3653,-0.3654,-0.3654,-0.3654,-0.3654,-0.3654,0,-0.3875,-0.3862,-0.3839,-0.3818,-0.3813,-0.3799,-0.3782,-0.3769,-0.376,-0.3741,-0.3736,-0.3721,-0.3703,-0.3691,-0.3668,-0.3662,-0.3641,-0.364,-0.3647,-0.3646,-0.3637,-0.3638,-0.3612,-0.3608,-0.3626,-0.3626,-0.3625,0,-0.3863,-0.3849,-0.3828,-0.3817,-0.3807,-0.379,-0.3779,-0.3767,-0.3756,-0.3736,-0.3726,-0.3708,-0.3692,-0.3665,-0.3651,-0.3634,-0.3632,-0.3624,-0.3629,-0.3632,-0.3631,-0.3632,-0.363,-0.3623,-0.3623,-0.3622,-0.3622,0,-0.3843,-0.3838,-0.3821,-0.3803,-0.3789,-0.3774,-0.376,-0.3752,-0.3738,-0.3726,-0.3707,-0.3695,-0.3673,-0.3655,-0.3637,-0.3627,-0.3622,-0.3621,-0.3618,-0.362,-0.3624,-0.3621,-0.3644,-0.3621,-0.3622,-0.3622,-0.3622,-0.3622,-0.383,-0.3818,-0.3801,-0.3784,-0.3771,-0.3758,-0.3745,-0.3734,-0.3719,-0.3699,-0.3694,-0.3675,-0.3659,-0.3635,-0.3625,-0.3611,-0.3611,-0.3607,-0.3605,-0.3604,-0.3604,-0.3628,-0.3607,-0.3607,-0.3607,-0.3607,-0.3607,0,-0.381,-0.3799,-0.3783,-0.3762,-0.3749,-0.3746,-0.373,-0.3719,-0.3702,-0.3688,-0.3674,-0.3653,-0.3637,-0.3623,-0.3606,-0.3597,-0.3595,-0.3593,-0.3593,-0.3591,-0.3605,-0.3609,-0.3595,-0.3595,-0.3595,-0.3595,-0.3595,-0.3595,-0.3797,-0.3776,-0.377,-0.3744,-0.3733,-0.3714,-0.3705,-0.3693,-0.3682,-0.3659,-0.3645,-0.3637,-0.3623,-0.3606,-0.359,-0.3587,-0.3581,-0.3579,-0.3575,-0.3588,-0.359,-0.3591,-0.3595,-0.3578,-0.3578,-0.3563,-0.3562,-0.3562]},{"header":{"parameterUnit":"m.s-1","parameterCategory":1,"la1":30.2991,"la2":30.254,"lo1":-89.0895,"lo2":-89.0444,"dy":0.0017,"dx":0.0017,"nx":28,"ny":28,"refTime":"2024-09-02T03:00:00:Z","depth":0,"parameterNumber":3,"parameterNumberName":"V-component_of_WINDS"},"data":[0,0,0,0,0,0,0,0,0,0,0,0,0,0,0,0,0,0,0,0,0,0,0,0,0,0,0,0,0,0,0,0,0,0,0,0,0,0,0,0,0,0,0,0,0,0,0,0,0,0,0,0,0,0,0,0,0,0,1.8861,1.8859,0,1.8694,1.8692,1.869,1.8615,1.8615,1.8615,1.8616,1.8431,1.8426,1.8421,0,0,0,0,0,0,0,0,0,0,0,0,0,1.9101,1.9097,1.8861,1.8859,1.8857,1.8694,1.8692,1.8689,1.8615,1.8615,1.8615,1.8616,1.8433,1.8427,1.8421,0,0,0,0,0,0,0,0,0,0,0,0,0,1.8971,1.9096,1.8861,1.88,1.8793,1.8695,1.8692,1.8689,1.8615,1.8615,1.8615,1.8616,1.8435,1.8427,1.842,1.8365,0,0,1.8396,1.8393,0,0,0,0,0,0,0,0,1.8979,1.8962,1.8811,1.8804,1.8796,1.8676,1.8709,1.858,1.8615,1.8682,1.8616,1.8616,1.8511,1.8497,1.8465,1.8356,1.8349,1.8396,1.8391,1.8388,1.8385,0,0,0,0,0,0,0,1.8988,1.8969,1.8794,1.8809,1.88,1.8776,1.8758,1.8684,1.8596,1.8676,1.8671,1.8652,1.8507,1.8472,1.846,1.8346,1.8396,1.8389,1.8384,1.8381,1.8179,1.8178,0,0,0,0,0,0,1.9009,1.8977,1.88,1.8789,1.8891,1.8772,1.8752,1.8714,1.8597,1.858,1.8652,1.865,1.8485,1.8469,1.8453,1.8379,1.8388,1.838,1.8376,1.8179,1.8179,1.8178,0,0,0,0,0,0,1.9014,1.8994,1.8806,1.8882,1.8856,1.8767,1.8725,1.871,1.8676,1.8579,1.8562,1.8634,1.8485,1.8464,1.8387,1.8371,1.8377,1.837,1.818,1.8179,1.8178,1.8231,0,0,0,0,0,0,1.9021,1.8996,1.8978,1.8882,1.8853,1.8748,1.8725,1.8707,1.8664,1.8659,1.8557,1.854,1.8484,1.8399,1.838,1.8361,1.8364,1.8181,1.818,1.8179,1.8231,1.8232,1.8234,0,0,0,0,0,1.903,1.8998,1.8978,1.8957,1.8829,1.8748,1.873,1.867,1.8664,1.8642,1.8579,1.8544,1.8377,1.8392,1.8369,1.8348,1.8182,1.818,1.8179,1.823,1.8232,1.8234,0,0,0,0,0,0,1.9091,1.8984,1.8961,1.8898,1.8833,1.8736,1.8707,1.8674,1.8606,1.8604,1.8527,1.8504,1.8433,1.8383,1.8402,1.8286,1.8276,1.8269,1.8323,1.8324,1.8325,1.8338,1.8358,0,0,0,0,0,1.9098,1.9045,1.8953,1.8905,1.8875,1.8797,1.8759,1.8718,1.8646,1.8617,1.8548,1.8476,1.8406,1.8362,1.8293,1.8223,1.8197,1.8196,1.8198,1.82,1.8194,1.8149,1.8146,1.8172,1.8172,1.8172,0,0,1.9109,1.9045,1.9016,1.8916,1.8861,1.8803,1.8774,1.8715,1.867,1.8606,1.8531,1.8477,1.839,1.8317,1.828,1.8272,1.8181,1.8197,1.82,1.8193,1.8147,1.8145,1.8143,1.8171,1.8171,1.8171,0,0,1.9102,1.905,1.9003,1.8949,1.8867,1.8815,1.8804,1.8711,1.8674,1.8598,1.8548,1.849,1.8374,1.8313,1.8267,1.8233,1.8196,1.8212,1.8219,1.8176,1.8174,1.8172,1.8156,1.8152,1.8208,1.8208,1.8208,0,1.9126,1.9042,1.8982,1.8926,1.8881,1.8824,1.8773,1.8722,1.862,1.8588,1.8582,1.8432,1.837,1.8279,1.8271,1.8236,1.8216,1.8223,1.818,1.8177,1.8174,1.8158,1.8153,1.821,1.821,1.821,1.8209,0,1.9074,1.9016,1.8987,1.8895,1.8846,1.8793,1.872,1.8677,1.8639,1.8586,1.8506,1.8429,1.8342,1.8317,1.8279,1.8219,1.8216,1.8196,1.8183,1.8175,1.8158,1.8152,1.8213,1.8213,1.8212,1.8211,0,0,1.9101,1.8975,1.8965,1.8921,1.8825,1.8776,1.8717,1.8636,1.86,1.853,1.8475,1.8377,1.8357,1.8304,1.8257,1.822,1.8193,1.8203,1.8199,1.8201,1.8118,1.8133,1.8127,1.8169,1.8167,1.8166,1.8124,0,1.9079,1.8977,1.892,1.8839,1.8782,1.8725,1.8673,1.8606,1.8554,1.8493,1.8433,1.8364,1.8344,1.8312,1.8272,1.8206,1.8175,1.8208,1.8112,1.811,1.8135,1.8119,1.8135,1.81,1.8118,1.8117,1.8116,0,1.904,1.8975,1.889,1.8798,1.8772,1.8727,1.8646,1.8591,1.851,1.8474,1.8415,1.8368,1.8298,1.8292,1.8191,1.8215,1.8171,1.8132,1.8129,1.8116,1.8112,1.8103,1.8087,1.8081,1.8106,1.8107,1.8107,0,1.9066,1.8956,1.889,1.8854,1.8746,1.8715,1.8667,1.8588,1.8541,1.8468,1.8436,1.8355,1.8309,1.8245,1.8175,1.8177,1.8079,1.8068,1.8043,1.8044,1.8024,1.8026,1.7998,1.8,1.8,1.8,1.8,0,1.9046,1.8995,1.89,1.886,1.8799,1.8731,1.8671,1.8618,1.8547,1.8491,1.8435,1.8383,1.8295,1.8229,1.8173,1.8096,1.8076,1.8041,1.8026,1.8045,1.8049,1.8015,1.8014,1.7999,1.7999,1.7999,1.8,0,1.9064,1.9,1.8923,1.8827,1.8801,1.8761,1.8675,1.863,1.8575,1.8504,1.8483,1.8394,1.8313,1.8238,1.813,1.8091,1.8013,1.7995,1.8041,1.8033,1.8011,1.8013,1.7958,1.7946,1.7959,1.7959,1.7959,0,1.9056,1.9016,1.8916,1.8876,1.8831,1.8767,1.872,1.8649,1.8601,1.8505,1.847,1.8387,1.8316,1.8189,1.8111,1.8027,1.8005,1.7991,1.7991,1.801,1.8001,1.8003,1.7997,1.7992,1.7993,1.7993,1.7993,0,1.9047,1.9016,1.8953,1.8877,1.8823,1.8758,1.8692,1.8661,1.8576,1.8523,1.8443,1.8389,1.8278,1.8194,1.81,1.8044,1.8002,1.7994,1.7983,1.8,1.8028,1.801,1.8042,1.7995,1.7995,1.7995,1.7994,1.7994,1.9049,1.901,1.8933,1.8862,1.8805,1.8744,1.8696,1.8635,1.8568,1.8476,1.8436,1.8353,1.8268,1.8139,1.8083,1.8013,1.8004,1.7989,1.7985,1.7981,1.7984,1.8041,1.7996,1.7996,1.7996,1.7995,1.7995,0,1.9035,1.8982,1.8918,1.8828,1.8771,1.8741,1.8664,1.8617,1.8547,1.8473,1.8405,1.8309,1.8226,1.8142,1.8053,1.8012,1.799,1.7991,1.7992,1.7979,1.7999,1.8016,1.801,1.801,1.801,1.801,1.801,1.801,1.9021,1.8952,1.8911,1.881,1.8756,1.8678,1.8636,1.8576,1.8517,1.8415,1.8347,1.8294,1.8213,1.8117,1.8037,1.8014,1.7982,1.7988,1.7958,1.7978,1.7978,1.7977,1.7993,1.7982,1.7982,1.7943,1.7943,1.7943]}]]